TimePST,TemperatureF,Dew PointF,Humidity,Sea Level PressureIn,VisibilityMPH,Wind Direction,Wind SpeedMPH,Gust SpeedMPH,PrecipitationIn,Events,Conditions,WindDirDegrees,DateUTC
12:53 AM,34.0,26.1,73,30.27,10.0,SW,12.7,-,N/A,,Clear,220,2013-02-26 08:53:00
1:53 AM,33.1,26.1,75,30.28,10.0,SW,11.5,-,N/A,,Clear,220,2013-02-26 09:53:00
2:53 AM,33.1,27.0,78,30.29,10.0,SSW,11.5,-,N/A,,Clear,210,2013-02-26 10:53:00
3:53 AM,32.0,27.0,82,30.30,10.0,SSW,6.9,-,N/A,,Clear,200,2013-02-26 11:53:00
4:53 AM,30.9,26.1,82,30.32,10.0,South,3.5,-,N/A,,Clear,190,2013-02-26 12:53:00
5:53 AM,28.9,25.0,85,30.33,10.0,Calm,Calm,-,N/A,,Clear,0,2013-02-26 13:53:00
6:53 AM,30.9,25.0,79,30.35,10.0,SSE,4.6,-,N/A,,Clear,150,2013-02-26 14:53:00
7:53 AM,32.0,27.0,82,30.36,10.0,ESE,4.6,-,N/A,,Clear,110,2013-02-26 15:53:00
8:53 AM,39.9,28.9,65,30.37,10.0,SSW,9.2,-,N/A,,Clear,210,2013-02-26 16:53:00
9:53 AM,43.0,28.9,58,30.38,10.0,SSW,10.4,-,N/A,,Clear,200,2013-02-26 17:53:00
10:53 AM,46.0,28.0,50,30.37,10.0,SSW,11.5,-,N/A,,Clear,210,2013-02-26 18:53:00
11:53 AM,48.0,27.0,44,30.35,10.0,South,8.1,-,N/A,,Clear,190,2013-02-26 19:53:00
12:53 PM,48.9,26.1,41,30.33,10.0,South,8.1,16.1,N/A,,Clear,170,2013-02-26 20:53:00
1:53 PM,50.0,27.0,41,30.30,10.0,SSW,9.2,-,N/A,,Clear,200,2013-02-26 21:53:00
2:53 PM,51.1,27.0,39,30.30,10.0,SW,11.5,16.1,N/A,,Clear,220,2013-02-26 22:53:00
3:53 PM,50.0,26.1,39,30.29,10.0,South,8.1,-,N/A,,Clear,180,2013-02-26 23:53:00
4:53 PM,48.9,26.1,41,30.28,10.0,SE,3.5,-,N/A,,Clear,130,2013-02-27 00:53:00
5:53 PM,46.0,27.0,47,30.27,10.0,ESE,3.5,-,N/A,,Clear,110,2013-02-27 01:53:00
6:53 PM,41.0,27.0,57,30.27,10.0,East,5.8,-,N/A,,Clear,100,2013-02-27 02:53:00
7:53 PM,39.0,27.0,62,30.26,10.0,Calm,Calm,-,N/A,,Clear,0,2013-02-27 03:53:00
8:53 PM,36.0,27.0,70,30.26,10.0,East,3.5,-,N/A,,Clear,90,2013-02-27 04:53:00
9:53 PM,34.0,26.1,73,30.25,10.0,Calm,Calm,-,N/A,,Clear,0,2013-02-27 05:53:00
10:53 PM,32.0,28.0,85,30.24,10.0,Calm,Calm,-,N/A,,Mostly Cloudy,0,2013-02-27 06:53:00
11:53 PM,32.0,28.0,85,30.23,10.0,Calm,Calm,-,N/A,,Mostly Cloudy,0,2013-02-27 07:53:00